﻿測定場所 (Monitoring sites),日付 (Measurement date),時間 (Measurement time),線量率 最大値 (max) μGy/h,線量率 最小値 (min) μGy/h,線量率 平均値 (average) μGy/h,
江戸川 (Edogawa),2016-10-16,23:01～24:00,0.0588,0.0520,0.0551,
江戸川 (Edogawa),2016-10-16,22:01～23:00,0.0581,0.0521,0.0553,
江戸川 (Edogawa),2016-10-16,21:01～22:00,0.0591,0.0505,0.0544,
江戸川 (Edogawa),2016-10-16,20:01～21:00,0.0595,0.0512,0.0550,
江戸川 (Edogawa),2016-10-16,19:01～20:00,0.0575,0.0511,0.0545,
江戸川 (Edogawa),2016-10-16,18:01～19:00,0.0580,0.0504,0.0547,
江戸川 (Edogawa),2016-10-16,17:01～18:00,0.0568,0.0501,0.0542,
江戸川 (Edogawa),2016-10-16,16:01～17:00,0.0586,0.0514,0.0547,
江戸川 (Edogawa),2016-10-16,15:01～16:00,0.0586,0.0511,0.0544,
江戸川 (Edogawa),2016-10-16,14:01～15:00,0.0578,0.0513,0.0544,
江戸川 (Edogawa),2016-10-16,13:01～14:00,0.0563,0.0505,0.0536,
江戸川 (Edogawa),2016-10-16,12:01～13:00,0.0573,0.0511,0.0546,
江戸川 (Edogawa),2016-10-16,11:01～12:00,0.0585,0.0509,0.0545,
江戸川 (Edogawa),2016-10-16,10:01～11:00,0.0587,0.0506,0.0549,
江戸川 (Edogawa),2016-10-16,09:01～10:00,0.0606,0.0533,0.0560,
江戸川 (Edogawa),2016-10-16,08:01～09:00,0.0601,0.0515,0.0552,
江戸川 (Edogawa),2016-10-16,07:01～08:00,0.0606,0.0518,0.0554,
江戸川 (Edogawa),2016-10-16,06:01～07:00,0.0580,0.0524,0.0550,
江戸川 (Edogawa),2016-10-16,05:01～06:00,0.0584,0.0519,0.0549,
江戸川 (Edogawa),2016-10-16,04:01～05:00,0.0582,0.0517,0.0553,
江戸川 (Edogawa),2016-10-16,03:01～04:00,0.0586,0.0515,0.0551,
江戸川 (Edogawa),2016-10-16,02:01～03:00,0.0603,0.0511,0.0545,
江戸川 (Edogawa),2016-10-16,01:01～02:00,0.0582,0.0508,0.0546,
江戸川 (Edogawa),2016-10-16,00:01～01:00,0.0579,0.0514,0.0542,
江戸川 (Edogawa),2016-10-15,23:01～24:00,0.0590,0.0518,0.0546,
江戸川 (Edogawa),2016-10-15,22:01～23:00,0.0586,0.0516,0.0543,
江戸川 (Edogawa),2016-10-15,21:01～22:00,0.0578,0.0510,0.0548,
江戸川 (Edogawa),2016-10-15,20:01～21:00,0.0573,0.0512,0.0547,
江戸川 (Edogawa),2016-10-15,19:01～20:00,0.0580,0.0526,0.0549,
江戸川 (Edogawa),2016-10-15,18:01～19:00,0.0590,0.0516,0.0550,
江戸川 (Edogawa),2016-10-15,17:01～18:00,0.0591,0.0521,0.0548,
江戸川 (Edogawa),2016-10-15,16:01～17:00,0.0595,0.0510,0.0547,
江戸川 (Edogawa),2016-10-15,15:01～16:00,0.0581,0.0516,0.0546,
江戸川 (Edogawa),2016-10-15,14:01～15:00,0.0567,0.0514,0.0545,
江戸川 (Edogawa),2016-10-15,13:01～14:00,0.0576,0.0516,0.0546,
江戸川 (Edogawa),2016-10-15,12:01～13:00,0.0590,0.0507,0.0548,
江戸川 (Edogawa),2016-10-15,11:01～12:00,0.0583,0.0517,0.0551,
江戸川 (Edogawa),2016-10-15,10:01～11:00,0.0591,0.0516,0.0557,
江戸川 (Edogawa),2016-10-15,09:01～10:00,0.0590,0.0529,0.0555,
江戸川 (Edogawa),2016-10-15,08:01～09:00,0.0580,0.0513,0.0551,
江戸川 (Edogawa),2016-10-15,07:01～08:00,0.0586,0.0503,0.0553,
江戸川 (Edogawa),2016-10-15,06:01～07:00,0.0584,0.0522,0.0552,
江戸川 (Edogawa),2016-10-15,05:01～06:00,0.0599,0.0513,0.0553,
江戸川 (Edogawa),2016-10-15,04:01～05:00,0.0588,0.0513,0.0550,
江戸川 (Edogawa),2016-10-15,03:01～04:00,0.0577,0.0523,0.0550,
江戸川 (Edogawa),2016-10-15,02:01～03:00,0.0589,0.0510,0.0550,
江戸川 (Edogawa),2016-10-15,01:01～02:00,0.0582,0.0507,0.0543,
江戸川 (Edogawa),2016-10-15,00:01～01:00,0.0570,0.0514,0.0537,
江戸川 (Edogawa),2016-10-14,23:01～24:00,0.0585,0.0514,0.0537,
江戸川 (Edogawa),2016-10-14,22:01～23:00,0.0581,0.0514,0.0538,
江戸川 (Edogawa),2016-10-14,21:01～22:00,0.0569,0.0506,0.0537,
江戸川 (Edogawa),2016-10-14,20:01～21:00,0.0568,0.0504,0.0541,
江戸川 (Edogawa),2016-10-14,19:01～20:00,0.0585,0.0511,0.0543,
江戸川 (Edogawa),2016-10-14,18:01～19:00,0.0578,0.0508,0.0541,
江戸川 (Edogawa),2016-10-14,17:01～18:00,0.0571,0.0506,0.0543,
江戸川 (Edogawa),2016-10-14,16:01～17:00,0.0572,0.0510,0.0542,
江戸川 (Edogawa),2016-10-14,15:01～16:00,0.0601,0.0510,0.0544,
江戸川 (Edogawa),2016-10-14,14:01～15:00,0.0584,0.0517,0.0543,
江戸川 (Edogawa),2016-10-14,13:01～14:00,0.0579,0.0506,0.0542,
江戸川 (Edogawa),2016-10-14,12:01～13:00,0.0570,0.0507,0.0543,
江戸川 (Edogawa),2016-10-14,11:01～12:00,0.0565,0.0518,0.0545,
江戸川 (Edogawa),2016-10-14,10:01～11:00,0.0582,0.0509,0.0548,
江戸川 (Edogawa),2016-10-14,09:01～10:00,0.0586,0.0516,0.0551,
江戸川 (Edogawa),2016-10-14,08:01～09:00,0.0585,0.0522,0.0549,
江戸川 (Edogawa),2016-10-14,07:01～08:00,0.0582,0.0519,0.0548,
江戸川 (Edogawa),2016-10-14,06:01～07:00,0.0575,0.0504,0.0545,
江戸川 (Edogawa),2016-10-14,05:01～06:00,0.0566,0.0510,0.0543,
江戸川 (Edogawa),2016-10-14,04:01～05:00,0.0583,0.0510,0.0542,
江戸川 (Edogawa),2016-10-14,03:01～04:00,0.0584,0.0513,0.0543,
江戸川 (Edogawa),2016-10-14,02:01～03:00,0.0579,0.0512,0.0549,
江戸川 (Edogawa),2016-10-14,01:01～02:00,0.0573,0.0508,0.0543,
江戸川 (Edogawa),2016-10-14,00:01～01:00,0.0582,0.0512,0.0546,
江戸川 (Edogawa),2016-10-13,23:01～24:00,0.0580,0.0521,0.0546,
江戸川 (Edogawa),2016-10-13,22:01～23:00,0.0569,0.0511,0.0542,
江戸川 (Edogawa),2016-10-13,21:01～22:00,0.0570,0.0520,0.0545,
江戸川 (Edogawa),2016-10-13,20:01～21:00,0.0572,0.0509,0.0542,
江戸川 (Edogawa),2016-10-13,19:01～20:00,0.0568,0.0509,0.0542,
江戸川 (Edogawa),2016-10-13,18:01～19:00,0.0579,0.0504,0.0542,
江戸川 (Edogawa),2016-10-13,17:01～18:00,0.0587,0.0504,0.0540,
江戸川 (Edogawa),2016-10-13,16:01～17:00,0.0588,0.0498,0.0537,
江戸川 (Edogawa),2016-10-13,15:01～16:00,0.0570,0.0515,0.0540,
江戸川 (Edogawa),2016-10-13,14:01～15:00,0.0573,0.0506,0.0541,
江戸川 (Edogawa),2016-10-13,13:01～14:00,0.0586,0.0515,0.0545,
江戸川 (Edogawa),2016-10-13,12:01～13:00,0.0599,0.0502,0.0546,
江戸川 (Edogawa),2016-10-13,11:01～12:00,0.0574,0.0508,0.0545,
江戸川 (Edogawa),2016-10-13,10:01～11:00,0.0583,0.0508,0.0541,
江戸川 (Edogawa),2016-10-13,09:01～10:00,0.0579,0.0508,0.0546,
江戸川 (Edogawa),2016-10-13,08:01～09:00,0.0575,0.0496,0.0544,
江戸川 (Edogawa),2016-10-13,07:01～08:00,0.0583,0.0511,0.0547,
江戸川 (Edogawa),2016-10-13,06:01～07:00,0.0579,0.0504,0.0543,
江戸川 (Edogawa),2016-10-13,05:01～06:00,0.0583,0.0516,0.0547,
江戸川 (Edogawa),2016-10-13,04:01～05:00,0.0586,0.0517,0.0549,
江戸川 (Edogawa),2016-10-13,03:01～04:00,0.0582,0.0519,0.0548,
江戸川 (Edogawa),2016-10-13,02:01～03:00,0.0580,0.0498,0.0547,
江戸川 (Edogawa),2016-10-13,01:01～02:00,0.0586,0.0510,0.0549,
江戸川 (Edogawa),2016-10-13,00:01～01:00,0.0572,0.0508,0.0544,
江戸川 (Edogawa),2016-10-12,23:01～24:00,0.0581,0.0510,0.0543,
江戸川 (Edogawa),2016-10-12,22:01～23:00,0.0581,0.0511,0.0544,
江戸川 (Edogawa),2016-10-12,21:01～22:00,0.0567,0.0509,0.0541,
江戸川 (Edogawa),2016-10-12,20:01～21:00,0.0572,0.0509,0.0543,
江戸川 (Edogawa),2016-10-12,19:01～20:00,0.0578,0.0508,0.0542,
江戸川 (Edogawa),2016-10-12,18:01～19:00,0.0578,0.0510,0.0542,
江戸川 (Edogawa),2016-10-12,17:01～18:00,0.0585,0.0508,0.0544,
江戸川 (Edogawa),2016-10-12,16:01～17:00,0.0585,0.0522,0.0549,
江戸川 (Edogawa),2016-10-12,15:01～16:00,0.0573,0.0514,0.0548,
江戸川 (Edogawa),2016-10-12,14:01～15:00,0.0572,0.0502,0.0544,
江戸川 (Edogawa),2016-10-12,13:01～14:00,0.0591,0.0514,0.0548,
江戸川 (Edogawa),2016-10-12,12:01～13:00,0.0582,0.0516,0.0550,
江戸川 (Edogawa),2016-10-12,11:01～12:00,0.0582,0.0522,0.0551,
江戸川 (Edogawa),2016-10-12,10:01～11:00,0.0598,0.0520,0.0556,
江戸川 (Edogawa),2016-10-12,09:01～10:00,0.0583,0.0508,0.0552,
江戸川 (Edogawa),2016-10-12,08:01～09:00,0.0601,0.0526,0.0555,
江戸川 (Edogawa),2016-10-12,07:01～08:00,0.0590,0.0507,0.0548,
江戸川 (Edogawa),2016-10-12,06:01～07:00,0.0580,0.0515,0.0544,
江戸川 (Edogawa),2016-10-12,05:01～06:00,0.0565,0.0514,0.0545,
江戸川 (Edogawa),2016-10-12,04:01～05:00,0.0595,0.0524,0.0551,
江戸川 (Edogawa),2016-10-12,03:01～04:00,0.0583,0.0512,0.0548,
江戸川 (Edogawa),2016-10-12,02:01～03:00,0.0573,0.0506,0.0543,
江戸川 (Edogawa),2016-10-12,01:01～02:00,0.0577,0.0502,0.0542,
江戸川 (Edogawa),2016-10-12,00:01～01:00,0.0570,0.0516,0.0540,
江戸川 (Edogawa),2016-10-11,23:01～24:00,0.0570,0.0515,0.0538,
江戸川 (Edogawa),2016-10-11,22:01～23:00,0.0559,0.0514,0.0540,
江戸川 (Edogawa),2016-10-11,21:01～22:00,0.0564,0.0491,0.0539,
江戸川 (Edogawa),2016-10-11,20:01～21:00,0.0568,0.0494,0.0536,
江戸川 (Edogawa),2016-10-11,19:01～20:00,0.0579,0.0507,0.0541,
江戸川 (Edogawa),2016-10-11,18:01～19:00,0.0562,0.0503,0.0536,
江戸川 (Edogawa),2016-10-11,17:01～18:00,0.0578,0.0509,0.0541,
江戸川 (Edogawa),2016-10-11,16:01～17:00,0.0584,0.0513,0.0542,
江戸川 (Edogawa),2016-10-11,15:01～16:00,0.0577,0.0512,0.0540,
江戸川 (Edogawa),2016-10-11,14:01～15:00,0.0565,0.0509,0.0539,
江戸川 (Edogawa),2016-10-11,13:01～14:00,0.0574,0.0510,0.0539,
江戸川 (Edogawa),2016-10-11,12:01～13:00,0.0573,0.0507,0.0540,
江戸川 (Edogawa),2016-10-11,11:01～12:00,0.0570,0.0510,0.0540,
江戸川 (Edogawa),2016-10-11,10:01～11:00,0.0572,0.0512,0.0538,
江戸川 (Edogawa),2016-10-11,09:01～10:00,0.0573,0.0513,0.0541,
江戸川 (Edogawa),2016-10-11,08:01～09:00,0.0578,0.0503,0.0543,
江戸川 (Edogawa),2016-10-11,07:01～08:00,0.0562,0.0491,0.0537,
江戸川 (Edogawa),2016-10-11,06:01～07:00,0.0578,0.0516,0.0541,
江戸川 (Edogawa),2016-10-11,05:01～06:00,0.0567,0.0501,0.0535,
江戸川 (Edogawa),2016-10-11,04:01～05:00,0.0579,0.0497,0.0539,
江戸川 (Edogawa),2016-10-11,03:01～04:00,0.0564,0.0509,0.0537,
江戸川 (Edogawa),2016-10-11,02:01～03:00,0.0584,0.0490,0.0536,
江戸川 (Edogawa),2016-10-11,01:01～02:00,0.0576,0.0507,0.0536,
江戸川 (Edogawa),2016-10-11,00:01～01:00,0.0567,0.0504,0.0535,
江戸川 (Edogawa),2016-10-10,23:01～24:00,0.0569,0.0497,0.0537,
江戸川 (Edogawa),2016-10-10,22:01～23:00,0.0572,0.0500,0.0537,
江戸川 (Edogawa),2016-10-10,21:01～22:00,0.0565,0.0496,0.0536,
江戸川 (Edogawa),2016-10-10,20:01～21:00,0.0582,0.0506,0.0537,
江戸川 (Edogawa),2016-10-10,19:01～20:00,0.0583,0.0489,0.0541,
江戸川 (Edogawa),2016-10-10,18:01～19:00,0.0562,0.0500,0.0537,
江戸川 (Edogawa),2016-10-10,17:01～18:00,0.0561,0.0499,0.0536,
江戸川 (Edogawa),2016-10-10,16:01～17:00,0.0583,0.0509,0.0540,
江戸川 (Edogawa),2016-10-10,15:01～16:00,0.0573,0.0510,0.0542,
江戸川 (Edogawa),2016-10-10,14:01～15:00,0.0576,0.0500,0.0539,
江戸川 (Edogawa),2016-10-10,13:01～14:00,0.0570,0.0500,0.0536,
江戸川 (Edogawa),2016-10-10,12:01～13:00,0.0570,0.0502,0.0540,
江戸川 (Edogawa),2016-10-10,11:01～12:00,0.0575,0.0502,0.0540,
江戸川 (Edogawa),2016-10-10,10:01～11:00,0.0576,0.0512,0.0543,
江戸川 (Edogawa),2016-10-10,09:01～10:00,0.0583,0.0521,0.0545,
江戸川 (Edogawa),2016-10-10,08:01～09:00,0.0581,0.0517,0.0542,
江戸川 (Edogawa),2016-10-10,07:01～08:00,0.0580,0.0511,0.0543,
江戸川 (Edogawa),2016-10-10,06:01～07:00,0.0575,0.0508,0.0542,
江戸川 (Edogawa),2016-10-10,05:01～06:00,0.0577,0.0509,0.0539,
江戸川 (Edogawa),2016-10-10,04:01～05:00,0.0576,0.0504,0.0540,
江戸川 (Edogawa),2016-10-10,03:01～04:00,0.0572,0.0493,0.0540,
江戸川 (Edogawa),2016-10-10,02:01～03:00,0.0580,0.0495,0.0546,
江戸川 (Edogawa),2016-10-10,01:01～02:00,0.0573,0.0506,0.0545,
江戸川 (Edogawa),2016-10-10,00:01～01:00,0.0569,0.0485,0.0539,
